TimeCDT,TemperatureF,Dew PointF,Humidity,Sea Level PressureIn,VisibilityMPH,Wind Direction,Wind SpeedMPH,Gust SpeedMPH,PrecipitationIn,Events,Conditions,WindDirDegrees,DateUTC
12:53 AM,71.1,57.0,61,29.96,10.0,SSW,8.1,-,N/A,,Clear,200,2013-05-16 05:53:00
1:53 AM,69.1,59.0,70,29.93,10.0,SSW,8.1,-,0.00,Rain,Light Rain,210,2013-05-16 06:53:00
2:53 AM,66.0,60.1,81,29.91,10.0,South,4.6,-,0.00,,Clear,190,2013-05-16 07:53:00
3:53 AM,66.9,61.0,81,29.95,10.0,SSW,5.8,-,N/A,,Scattered Clouds,210,2013-05-16 08:53:00
4:53 AM,66.9,60.1,79,29.95,10.0,SSW,6.9,-,0.00,,Overcast,200,2013-05-16 09:53:00
5:53 AM,64.9,61.0,87,29.96,10.0,South,3.5,-,N/A,,Overcast,190,2013-05-16 10:53:00
6:53 AM,66.0,62.1,87,29.98,10.0,ENE,3.5,-,0.00,,Overcast,70,2013-05-16 11:53:00
7:53 AM,68.0,62.1,81,29.98,10.0,ESE,3.5,-,N/A,,Mostly Cloudy,120,2013-05-16 12:53:00
8:53 AM,72.0,61.0,68,29.97,10.0,South,9.2,-,N/A,,Clear,170,2013-05-16 13:53:00
9:53 AM,73.9,60.1,62,29.97,10.0,South,10.4,17.3,N/A,,Clear,190,2013-05-16 14:53:00
10:53 AM,73.9,61.0,64,29.97,10.0,South,10.4,-,N/A,,Scattered Clouds,170,2013-05-16 15:53:00
11:53 AM,73.0,63.0,71,29.95,10.0,South,12.7,-,N/A,,Mostly Cloudy,170,2013-05-16 16:53:00
12:53 PM,72.0,63.0,73,29.95,10.0,South,5.8,-,0.00,,Overcast,190,2013-05-16 17:53:00
1:53 PM,75.0,64.0,69,29.93,10.0,SSE,10.4,-,N/A,,Mostly Cloudy,160,2013-05-16 18:53:00
2:53 PM,73.9,60.1,62,29.92,10.0,South,12.7,-,N/A,,Overcast,180,2013-05-16 19:53:00
3:53 PM,73.0,60.1,64,29.91,10.0,South,10.4,-,N/A,,Overcast,170,2013-05-16 20:53:00
4:53 PM,73.0,60.1,64,29.90,10.0,SSE,13.8,-,N/A,,Mostly Cloudy,160,2013-05-16 21:53:00
5:53 PM,72.0,60.1,66,29.90,10.0,SSE,10.4,-,N/A,,Mostly Cloudy,150,2013-05-16 22:53:00
6:53 PM,71.1,61.0,70,29.89,10.0,SSE,8.1,-,N/A,,Mostly Cloudy,150,2013-05-16 23:53:00
7:53 PM,70.0,61.0,73,29.88,10.0,SSE,9.2,-,N/A,,Overcast,150,2013-05-17 00:53:00
8:53 PM,69.1,62.1,78,29.89,10.0,SSE,5.8,-,N/A,,Overcast,160,2013-05-17 01:53:00
9:53 PM,66.9,64.0,90,29.91,10.0,SSE,6.9,-,0.00,,Overcast,150,2013-05-17 02:53:00
10:53 PM,68.0,63.0,84,29.90,10.0,SSE,8.1,-,N/A,,Overcast,150,2013-05-17 03:53:00
11:53 PM,69.1,63.0,81,29.89,10.0,SSE,10.4,-,0.00,,Overcast,160,2013-05-17 04:53:00